Miscellaneous Local Product
Issued by NWS Hastings, NE

Home | Current Version | Previous Version | Text Only | Print | Product List | Glossary On
Versions: 1 2 3 4 5 6 7 8 9 10 11 12 13 14 15 16 17 18 19 20 21 22 23 24 25 26 27 28 29 30 31 32 33 34 35 36 37 38 39 40 41 42 43 44 45 46 47 48 49 50
000
AXUS43 KGID 232202
MISGRI

GID CWA HOURLY WEATHER ROUNDUP
NATIONAL WEATHER SERVICE HASTINGS NE
500 PM CDT MON APR 23 2018

NOTE: "FAIR" INDICATES FEW OR NO CLOUDS BELOW 12,000 FEET WITH NO
SIGNIFICANT WEATHER AND/OR OBSTRUCTIONS TO VISIBILITY.

...SOUTH CENTRAL NEBRASKA...

CITY           SKY/WX    TMP DP  RH WIND       PRES   REMARKS
GRAND ISLAND   SUNNY     72  39  30 VRB3      30.07F
KEARNEY        SUNNY     68  38  33 SE7       30.08F
HASTINGS       MOSUNNY   69  38  32 S8        30.07F
ORD            PTSUNNY   69  37  30 SE7G23    30.06F
YORK             N/A     72  34  25 CALM      30.07F
AURORA         MOSUNNY   71  36  27 S8        30.07F
LEXINGTON      SUNNY     69  39  32 SE7G17    30.06F
HOLDREGE       MOSUNNY   68  40  36 SE7       30.07F
HEBRON         SUNNY     73  32  22 E5        30.06F

...NEBRASKA PANHANDLE...

CITY           SKY/WX    TMP DP  RH WIND       PRES   REMARKS
CHADRON        CLOUDY    67  40  37 S14       29.99R
ALLIANCE       MOSUNNY   66  41  40 S15       30.04R
SCOTTSBLUFF    CLOUDY    67  42  40 SE18      29.97F
SIDNEY         MOSUNNY   65  39  38 SE14G24   30.04R

...WESTERN AND NORTH CENTRAL NEBRASKA...

CITY           SKY/WX    TMP DP  RH WIND       PRES   REMARKS
VALENTINE      PTSUNNY   70  38  31 MISG      30.04F
AINSWORTH      MOSUNNY   68  39  34 S17G24    30.06F
ONEILL         CLOUDY    71  34  25 SE8       30.08F
BROKEN BOW     PTSUNNY   69  40  34 SE12G17   30.06F
IMPERIAL       MOSUNNY   68  37  32 SE16G25   30.02F
NORTH PLATTE   MOSUNNY   69  42  37 S14G22    30.04F
MCCOOK         MOSUNNY   69  41  36 SE15G23   30.05F

...EASTERN NEBRASKA...

CITY           SKY/WX    TMP DP  RH WIND       PRES   REMARKS
NORFOLK        SUNNY     71  31  22 VRB3      30.07F
SO SIOUX CITY  SUNNY     73  31  21 NE6       30.09F
TEKAMAH        SUNNY     74  28  18 N6        30.07F
COLUMBUS       SUNNY     71  37  28 NE6       30.08F
ALBION         SUNNY     71  36  27 SE3       30.08F
OMAHA EPPLEY   MOSUNNY   75  28  17 E8        30.06F
MILLARD        SUNNY     74  31  20 S3        30.07F
LINCOLN        SUNNY     75  29  18 N5        30.08F
NEBRASKA CITY  SUNNY     74  33  22 E8        30.06F
BEATRICE       MOSUNNY   74  33  22 NE3       30.06F
FALLS CITY     SUNNY     75  28  17 E8        30.04F

...NORTHERN KANSAS...

CITY           SKY/WX    TMP DP  RH WIND       PRES   REMARKS
GOODLAND       SUNNY     67  39  35 S15G26    30.03F
HILL CITY      PTSUNNY   72  41  32 VRB5      30.05F
NORTON         PTCLDY    72  39  30 SE5       30.05F
PHILLIPSBURG   SUNNY     72  36  26 CALM      30.06F
SMITH CENTER   SUNNY     72  37  28 SE6       30.08F
BELOIT         SUNNY     61  27  27 CALM      30.05F
HAYS           MOSUNNY   69  42  37 SE7       30.06F
RUSSELL        SUNNY     71  40  32 VRB7      30.05F
CONCORDIA      SUNNY     73  32  22 NW7       30.05F
SALINA         SUNNY     74  38  27 VRB6      30.05F
TOPEKA         SUNNY     76  33  21 NE5       30.01F



USA.gov is the U.S. government's official web portal to all federal, state and local government web resources and services.